Weather History for Rutherfordton, NC

Change the Weather History Date:

Friday, August 23, 2013

  Actual Average (KAVL) Record (KAVL)
Temperature  
Mean Temperature 74 °F 72 °F  
Max Temperature 85 °F 82 °F 98 °F (1983)
Min Temperature 64 °F 62 °F 45 °F (1969)
Degree Days  
Heating Degree Days 0 0  
Month to date heating degree days 0  
Since 1 June heating degree days 14  
Since 1 July heating degree days 0  
Cooling Degree Days 10 7  
Month to date cooling degree days 194  
Year to date cooling degree days 704  
Since 1 June cooling degree days 646  
Growing Degree Days 24 (Base 50)    
Moisture  
Dew Point 67 °F    
Average Humidity 87    
Maximum Humidity 100    
Minimum Humidity 53    
Precipitation  
Precipitation 0.26 in 0.14 in 2.41 in (1967)
Month to date precipitation 3.26  
Year to date precipitation 30.47  
Snow  
Snow 0.00 in 0.00 in 0.00 in ()
Month to date snowfall 0.0  
Since 1 June snowfall 0.0  
Since 1 July snowfall 0.0  
Snow Depth -    
Sea Level Pressure  
Sea Level Pressure 30.07 in    
Wind  
Wind Speed 3 mph (West)    
Max Wind Speed 12 mph    
Max Gust Speed 24 mph    
Visibility 8 miles    
Events Rain , Thunderstorm    
T = Trace of Precipitation, MM = Missing Value Source: NWS Daily Summary

Daily Weather History Graph

Daily Weather History Graph

Search for Another Location

Airport:

Trip Planner

Search our weather history database for the weather conditions in past years. The results will help you decide how hot, cold, wet, or windy it might be!

Date:

Astronomy

Aug. 23, 2013 Rise Set
Actual Time 6:53 AM EDT 8:06 PM EDT
Civil Twilight 6:26 AM EDT 8:32 PM EDT
Nautical Twilight 5:55 AM EDT 9:04 PM EDT
Astronomical Twilight 5:22 AM EDT 9:37 PM EDT
Moon 9:34 PM EDT (8/23) 9:38 AM EDT (8/23)
Length of Visible Light 14h 05m
Length of Day
13h 13m
Waning Gibbous, 91% of the Moon is Illuminated
Aug 23
Waning Gibbous
Aug 28
Last Quarter
Sep 5
New
Sep 12
First Quarter
Sep 19
Full

Hourly Weather History & Observations

Time (EDT) Temp. Heat Index Dew Point Humidity Pressure Visibility Wind Dir Wind Speed Gust Speed Precip Events Conditions
12:14 AM 68.0 °F - 68.0 °F 100% 30.10 in 10.0 mi WNW 3.5 mph - N/A   Clear
12:34 AM 68.0 °F - 68.0 °F 100% 30.09 in 10.0 mi Calm Calm - N/A   Clear
12:54 AM 66.2 °F - 66.2 °F 100% 30.09 in 1.8 mi Calm Calm - N/A   Scattered Clouds
1:14 AM 66.2 °F - 66.2 °F 100% 30.09 in 7.0 mi West 11.5 mph - N/A   Scattered Clouds
1:34 AM 69.8 °F - 68.0 °F 94% 30.08 in 10.0 mi NNW 4.6 mph - N/A   Clear
1:54 AM 68.0 °F - 66.2 °F 94% 30.08 in 10.0 mi Calm Calm - N/A   Clear
2:14 AM 66.2 °F - 66.2 °F 100% 30.08 in 10.0 mi West 11.5 mph - N/A   Clear
2:34 AM 66.2 °F - 66.2 °F 100% 30.07 in 5.0 mi South 8.1 mph - N/A   Scattered Clouds
2:54 AM 66.2 °F - 64.4 °F 94% 30.07 in 1.8 mi South 6.9 mph - N/A   Scattered Clouds
3:35 AM 66.2 °F - 66.2 °F 100% 30.05 in 10.0 mi Calm Calm - N/A   Clear
3:56 AM 64.4 °F - 64.4 °F 100% 30.05 in 5.0 mi West 5.8 mph - N/A   Clear
4:14 AM 66.2 °F - 66.2 °F 100% 30.04 in 7.0 mi WNW 4.6 mph - N/A   Scattered Clouds
4:35 AM 64.4 °F - 64.4 °F 100% 30.04 in 7.0 mi Calm Calm - N/A   Clear
4:54 AM 66.2 °F - 64.4 °F 94% 30.05 in 7.0 mi Calm Calm - N/A   Clear
5:14 AM 66.2 °F - 64.4 °F 94% 30.05 in 7.0 mi North 3.5 mph - N/A   Clear
5:34 AM 66.2 °F - 64.4 °F 94% 30.05 in 10.0 mi Calm Calm - N/A   Clear
5:54 AM 66.2 °F - 64.4 °F 94% 30.06 in 10.0 mi North 4.6 mph - N/A   Clear
6:14 AM 64.4 °F - 64.4 °F 100% 30.06 in 7.0 mi Calm Calm - N/A   Clear
6:34 AM 64.4 °F - 64.4 °F 100% 30.06 in 7.0 mi West 10.4 mph - N/A   Clear
6:55 AM 64.6 °F - 63.9 °F 98% 30.07 in 7.0 mi WNW 5.8 mph - N/A   Clear
6:58 AM 64.4 °F - 64.4 °F 100% 30.07 in 7.0 mi West 9.2 mph - N/A   Clear
7:15 AM 65.3 °F - 64.4 °F 97% 30.08 in 7.0 mi WNW 3.5 mph - N/A   Clear
7:35 AM 65.3 °F - 64.6 °F 98% 30.08 in 5.0 mi WNW 4.6 mph - N/A   Clear
7:55 AM 66.2 °F - 65.3 °F 97% 30.09 in 5.0 mi WNW 4.6 mph - N/A   Clear
8:15 AM 68.2 °F - 66.0 °F 93% 30.09 in 10.0 mi WNW 11.5 mph - N/A   Clear
8:35 AM 69.8 °F - 66.2 °F 88% 30.09 in 10.0 mi West 8.1 mph - N/A   Clear
8:55 AM 71.4 °F - 66.7 °F 85% 30.09 in 10.0 mi Calm Calm - N/A   Clear
9:15 AM 73.4 °F - 67.3 °F 81% 30.10 in 10.0 mi Calm Calm - N/A   Clear
9:35 AM 74.5 °F - 67.6 °F 79% 30.09 in 10.0 mi Calm Calm - N/A   Clear
9:55 AM 75.6 °F - 68.0 °F 77% 30.09 in 10.0 mi Calm Calm - N/A   Clear
10:15 AM 76.5 °F - 68.2 °F 75% 30.10 in 10.0 mi Calm Calm - N/A   Clear
10:35 AM 77.9 °F - 67.8 °F 71% 30.11 in 10.0 mi Calm Calm - N/A   Clear
10:55 AM 78.8 °F - 69.3 °F 72% 30.11 in 10.0 mi Calm Calm - N/A   Clear
11:15 AM 80.1 °F 82.9 °F 68.9 °F 69% 30.11 in 10.0 mi Calm Calm - N/A   Clear
11:35 AM 81.1 °F 84.2 °F 68.9 °F 66% 30.10 in 10.0 mi Calm Calm - N/A   Clear
11:55 AM 81.5 °F 84.1 °F 67.3 °F 62% 30.10 in 10.0 mi SW 4.6 mph - N/A   Clear
12:15 PM 82.6 °F 86.1 °F 69.1 °F 64% 30.10 in 10.0 mi SSW 4.6 mph - N/A   Clear
12:35 PM 82.4 °F 85.6 °F 68.5 °F 63% 30.09 in 10.0 mi Calm Calm - N/A   Clear
12:55 PM 82.6 °F 85.7 °F 68.4 °F 62% 30.08 in 10.0 mi SSW 3.5 mph - N/A   Clear
1:15 PM 84.9 °F 87.9 °F 67.6 °F 56% 30.08 in 10.0 mi Calm Calm - N/A   Clear
1:35 PM 83.5 °F 86.4 °F 67.6 °F 59% 30.07 in 10.0 mi Calm Calm - N/A   Clear
1:55 PM 84.6 °F 88.2 °F 68.7 °F 59% 30.06 in 10.0 mi SW 3.5 mph - N/A   Clear
2:15 PM 84.4 °F 87.6 °F 68.4 °F 58% 30.05 in 10.0 mi Calm Calm - N/A   Clear
2:35 PM 84.7 °F 87.4 °F 67.1 °F 55% 30.05 in 10.0 mi WSW 5.8 mph - N/A   Clear
2:55 PM 85.1 °F 88.8 °F 68.9 °F 58% 30.04 in 10.0 mi WSW 3.5 mph - N/A   Clear
3:15 PM 85.6 °F 88.2 °F 66.6 °F 53% 30.02 in 10.0 mi SSW 3.5 mph - N/A   Clear
3:35 PM 83.1 °F 85.0 °F 65.7 °F 55% 30.02 in 10.0 mi NE 8.1 mph - N/A Thunderstorm Mostly Cloudy
3:55 PM 71.8 °F - 66.7 °F 84% 30.05 in 0.8 mi ENE 11.5 mph 24.2 mph 0.22 in Rain , Thunderstorm Heavy Thunderstorms and Rain
4:15 PM 69.8 °F - 67.1 °F 91% 30.05 in 7.0 mi SSW 8.1 mph - 0.01 in Rain , Thunderstorm Thunderstorms and Rain
4:35 PM 70.2 °F - 66.9 °F 89% 30.05 in 10.0 mi East 4.6 mph - 0.02 in Thunderstorm Thunderstorm
4:55 PM 69.4 °F - 68.0 °F 95% 30.06 in 5.0 mi East 3.5 mph - 0.02 in Rain , Thunderstorm Light Thunderstorms and Rain
5:15 PM 70.0 °F - 69.1 °F 97% 30.05 in 4.0 mi SSE 5.8 mph - 0.02 in Rain , Thunderstorm Light Thunderstorms and Rain
5:35 PM 70.7 °F - 68.2 °F 92% 30.05 in 10.0 mi SW 3.5 mph - 0.02 in   Mostly Cloudy
5:55 PM 71.4 °F - 68.4 °F 90% 30.04 in 10.0 mi Calm Calm - 0.02 in   Scattered Clouds
6:15 PM 73.4 °F - 69.4 °F 87% 30.04 in 10.0 mi West 6.9 mph - N/A   Clear
6:35 PM 73.0 °F - 68.9 °F 87% 30.05 in 10.0 mi Calm Calm - N/A   Clear
6:55 PM 73.2 °F - 69.6 °F 88% 30.04 in 10.0 mi Calm Calm - N/A   Clear
7:15 PM 72.5 °F - 70.0 °F 92% 30.05 in 10.0 mi Calm Calm - N/A   Clear
7:35 PM 72.1 °F - 70.3 °F 94% 30.06 in 7.0 mi Calm Calm - N/A   Clear
7:55 PM 72.3 °F - 69.8 °F 92% 30.06 in 10.0 mi Calm Calm - N/A   Clear
8:34 PM 71.6 °F - 69.8 °F 94% 30.07 in 4.0 mi Calm Calm - N/A   Clear
8:54 PM 71.6 °F - 69.8 °F 94% 30.07 in 4.0 mi Calm Calm - N/A   Clear
9:14 PM 71.6 °F - 69.8 °F 94% 30.09 in 5.0 mi Calm Calm - N/A   Clear
9:34 PM 71.6 °F - 69.8 °F 94% 30.09 in 5.0 mi Calm Calm - N/A   Clear
9:54 PM 71.6 °F - 69.8 °F 94% 30.09 in 5.0 mi Calm Calm - N/A   Clear
10:14 PM 69.8 °F - 69.8 °F 100% 30.09 in 4.0 mi Calm Calm - N/A   Clear
10:36 PM 69.8 °F - 69.8 °F 100% 30.09 in 7.0 mi Calm Calm - N/A   Clear
10:56 PM 69.8 °F - 69.8 °F 100% 30.09 in 5.0 mi Calm Calm - N/A   Clear
11:14 PM 69.8 °F - 69.8 °F 100% 30.09 in 5.0 mi NNW 3.5 mph - N/A   Clear
11:34 PM 69.8 °F - 68.0 °F 94% 30.11 in 2.0 mi Calm Calm - N/A   Clear
11:54 PM 69.8 °F - 69.8 °F 100% 30.11 in 4.0 mi Calm Calm - N/A   Clear